Year,Month,Day,Hour,Minute,Value (Times are PST for temperature in C)
2008,08,06,00,00,14.90
2008,08,06,00,01,14.80
2008,08,06,00,02,14.80
2008,08,06,00,03,14.80
2008,08,06,00,04,14.80
2008,08,06,00,05,14.70
2008,08,06,00,06,14.70
2008,08,06,00,07,14.70
2008,08,06,00,08,14.70
2008,08,06,00,09,14.70
2008,08,06,00,10,14.70
2008,08,06,00,11,14.60
2008,08,06,00,12,14.60
2008,08,06,00,13,14.60
2008,08,06,00,14,14.60
2008,08,06,00,15,14.50
2008,08,06,00,16,14.50
2008,08,06,00,17,14.50
2008,08,06,00,18,14.40
2008,08,06,00,19,14.40
2008,08,06,00,20,14.40
2008,08,06,00,21,14.40
2008,08,06,00,22,14.30
2008,08,06,00,23,14.30
2008,08,06,00,24,14.30
2008,08,06,00,25,14.30
2008,08,06,00,26,14.30
2008,08,06,00,27,14.20
2008,08,06,00,28,14.20
2008,08,06,00,29,14.20
2008,08,06,00,30,14.20
2008,08,06,00,31,14.10
2008,08,06,00,32,14.10
2008,08,06,00,33,14.10
2008,08,06,00,34,14.00
2008,08,06,00,35,14.00
2008,08,06,00,36,14.00
2008,08,06,00,37,14.00
2008,08,06,00,38,14.10
2008,08,06,00,39,14.00
2008,08,06,00,40,14.00
2008,08,06,00,41,14.00
2008,08,06,00,42,14.00
2008,08,06,00,43,14.00
2008,08,06,00,44,14.00
2008,08,06,00,45,14.00
2008,08,06,00,46,14.00
2008,08,06,00,47,14.00
2008,08,06,00,48,14.00
2008,08,06,00,49,14.00
2008,08,06,00,50,14.00
2008,08,06,00,51,13.90
2008,08,06,00,52,13.90
2008,08,06,00,53,13.90
2008,08,06,00,54,13.90
2008,08,06,00,55,13.90
2008,08,06,00,56,14.00
2008,08,06,00,57,14.00
2008,08,06,00,58,14.00
2008,08,06,00,59,14.00
2008,08,06,01,00,14.00
2008,08,06,01,01,14.00
2008,08,06,01,02,14.00
2008,08,06,01,03,14.00
2008,08,06,01,04,14.00
2008,08,06,01,05,14.00
2008,08,06,01,06,14.00
2008,08,06,01,07,14.00
2008,08,06,01,08,14.00
2008,08,06,01,09,14.00
2008,08,06,01,10,14.00
2008,08,06,01,11,14.00
2008,08,06,01,12,14.00
2008,08,06,01,13,13.90
2008,08,06,01,14,14.00
2008,08,06,01,15,14.00
2008,08,06,01,16,13.90
2008,08,06,01,17,13.90
2008,08,06,01,18,13.90
2008,08,06,01,19,13.90
2008,08,06,01,20,13.80
2008,08,06,01,21,13.80
2008,08,06,01,22,13.80
2008,08,06,01,23,13.80
2008,08,06,01,24,13.80
2008,08,06,01,25,13.80
2008,08,06,01,26,13.80
2008,08,06,01,27,13.80
2008,08,06,01,28,13.90
2008,08,06,01,29,13.90
2008,08,06,01,30,13.90
2008,08,06,01,31,13.90
2008,08,06,01,32,14.00
2008,08,06,01,33,14.00
2008,08,06,01,34,14.00
2008,08,06,01,35,14.00
2008,08,06,01,36,14.00
2008,08,06,01,37,14.10
2008,08,06,01,38,14.20
2008,08,06,01,39,14.20
2008,08,06,01,40,14.20
2008,08,06,01,41,14.20
2008,08,06,01,42,14.10
2008,08,06,01,43,14.10
2008,08,06,01,44,14.10
2008,08,06,01,45,14.20
2008,08,06,01,46,14.20
2008,08,06,01,47,14.20
2008,08,06,01,48,14.20
2008,08,06,01,49,14.20
2008,08,06,01,50,14.20
2008,08,06,01,51,14.10
2008,08,06,01,52,14.10
2008,08,06,01,53,14.10
2008,08,06,01,54,14.00
2008,08,06,01,55,14.00
2008,08,06,01,56,13.90
2008,08,06,01,57,13.90
2008,08,06,01,58,13.90
2008,08,06,01,59,13.90
2008,08,06,02,00,13.90
2008,08,06,02,01,13.90
2008,08,06,02,02,13.90
2008,08,06,02,03,13.90
2008,08,06,02,04,14.00
2008,08,06,02,05,14.00
2008,08,06,02,06,14.10
2008,08,06,02,07,14.10
2008,08,06,02,08,14.10
2008,08,06,02,09,14.00
2008,08,06,02,10,14.10
2008,08,06,02,11,14.10
2008,08,06,02,12,14.10
2008,08,06,02,13,14.10
2008,08,06,02,14,14.10
2008,08,06,02,15,14.10
2008,08,06,02,16,14.20
2008,08,06,02,17,14.20
2008,08,06,02,18,14.30
2008,08,06,02,19,14.30
2008,08,06,02,20,14.30
2008,08,06,02,21,14.30
2008,08,06,02,22,14.30
2008,08,06,02,23,14.30
2008,08,06,02,24,14.30
2008,08,06,02,25,14.20
2008,08,06,02,26,14.20
2008,08,06,02,27,14.20
2008,08,06,02,28,14.10
2008,08,06,02,29,14.10
2008,08,06,02,30,14.10
2008,08,06,02,31,14.00
2008,08,06,02,32,14.00
2008,08,06,02,33,14.00
2008,08,06,02,34,13.90
2008,08,06,02,35,13.90
2008,08,06,02,36,13.90
2008,08,06,02,37,13.90
2008,08,06,02,38,13.90
2008,08,06,02,39,13.90
2008,08,06,02,40,13.90
2008,08,06,02,41,13.90
2008,08,06,02,42,13.90
2008,08,06,02,43,13.90
2008,08,06,02,44,13.80
2008,08,06,02,45,13.80
2008,08,06,02,46,13.80
2008,08,06,02,47,13.80
2008,08,06,02,48,13.70
2008,08,06,02,49,13.70
2008,08,06,02,50,13.70
2008,08,06,02,51,13.70
2008,08,06,02,52,13.60
2008,08,06,02,53,13.60
2008,08,06,02,54,13.60
2008,08,06,02,55,13.60
2008,08,06,02,56,13.60
2008,08,06,02,57,13.50
2008,08,06,02,58,13.50
2008,08,06,02,59,13.40
2008,08,06,03,00,13.50
2008,08,06,03,01,13.50
2008,08,06,03,02,13.60
2008,08,06,03,03,13.60
2008,08,06,03,04,13.70
2008,08,06,03,05,13.80
2008,08,06,03,06,13.80
2008,08,06,03,07,13.80
2008,08,06,03,08,13.90
2008,08,06,03,09,13.90
2008,08,06,03,10,13.90
2008,08,06,03,11,14.00
2008,08,06,03,12,14.00
2008,08,06,03,13,14.00
2008,08,06,03,14,13.90
2008,08,06,03,15,13.90
2008,08,06,03,16,13.90
2008,08,06,03,17,13.90
2008,08,06,03,18,13.80
2008,08,06,03,19,13.80
2008,08,06,03,20,13.80
2008,08,06,03,21,13.80
2008,08,06,03,22,13.80
2008,08,06,03,23,13.80
2008,08,06,03,24,13.80
2008,08,06,03,25,13.80
2008,08,06,03,26,13.80
2008,08,06,03,27,13.80
2008,08,06,03,28,13.80
2008,08,06,03,29,13.80
2008,08,06,03,30,13.80
2008,08,06,03,31,13.70
2008,08,06,03,32,13.70
2008,08,06,03,33,13.70
2008,08,06,03,34,13.70
2008,08,06,03,35,13.70
2008,08,06,03,36,13.60
2008,08,06,03,37,13.60
2008,08,06,03,38,13.60
2008,08,06,03,39,13.60
2008,08,06,03,40,13.60
2008,08,06,03,41,13.60
2008,08,06,03,42,13.60
2008,08,06,03,43,13.60
2008,08,06,03,44,13.60
2008,08,06,03,45,13.60
2008,08,06,03,46,13.60
2008,08,06,03,47,13.50
2008,08,06,03,48,13.50
2008,08,06,03,49,13.50
2008,08,06,03,50,13.60
2008,08,06,03,51,13.60
2008,08,06,03,52,13.60
2008,08,06,03,53,13.60
2008,08,06,03,54,13.60
2008,08,06,03,55,13.60
2008,08,06,03,56,13.60
2008,08,06,03,57,13.60
2008,08,06,03,58,13.60
2008,08,06,03,59,13.60
2008,08,06,04,00,13.60
2008,08,06,04,01,13.60
2008,08,06,04,02,13.60
2008,08,06,04,03,13.60
2008,08,06,04,04,13.60
2008,08,06,04,05,13.70
2008,08,06,04,06,13.70
2008,08,06,04,07,13.70
2008,08,06,04,08,13.70
2008,08,06,04,09,13.60
2008,08,06,04,10,13.60
2008,08,06,04,11,13.60
2008,08,06,04,12,13.60
2008,08,06,04,13,13.60
2008,08,06,04,14,13.70
2008,08,06,04,15,13.70
2008,08,06,04,16,13.60
2008,08,06,04,17,13.60
2008,08,06,04,18,13.60
2008,08,06,04,19,13.60
2008,08,06,04,20,13.60
2008,08,06,04,21,13.60
2008,08,06,04,22,13.60
2008,08,06,04,23,13.60
2008,08,06,04,24,13.70
2008,08,06,04,25,13.60
2008,08,06,04,26,13.70
2008,08,06,04,27,13.70
2008,08,06,04,28,13.70
2008,08,06,04,29,13.70
2008,08,06,04,30,13.70
2008,08,06,04,31,13.70
2008,08,06,04,32,13.70
2008,08,06,04,33,13.70
2008,08,06,04,34,13.70
2008,08,06,04,35,13.70
2008,08,06,04,36,13.70
2008,08,06,04,37,13.70
2008,08,06,04,38,13.70
2008,08,06,04,39,13.70
2008,08,06,04,40,13.70
2008,08,06,04,41,13.70
2008,08,06,04,42,13.70
2008,08,06,04,43,13.70
2008,08,06,04,44,13.70
2008,08,06,04,45,13.70
2008,08,06,04,46,13.70
2008,08,06,04,47,13.70
2008,08,06,04,48,13.60
2008,08,06,04,49,13.60
2008,08,06,04,50,13.60
2008,08,06,04,51,13.70
2008,08,06,04,52,13.70
2008,08,06,04,53,13.70
2008,08,06,04,54,13.70
2008,08,06,04,55,13.70
2008,08,06,04,56,13.70
2008,08,06,04,57,13.80
2008,08,06,04,58,13.70
2008,08,06,04,59,13.70
2008,08,06,05,00,13.70
2008,08,06,05,01,13.70
2008,08,06,05,02,13.70
2008,08,06,05,03,13.70
2008,08,06,05,04,13.70
2008,08,06,05,05,13.60
2008,08,06,05,06,13.60
2008,08,06,05,07,13.60
2008,08,06,05,08,13.60
2008,08,06,05,09,13.60
2008,08,06,05,10,13.60
2008,08,06,05,11,13.70
2008,08,06,05,12,13.70
2008,08,06,05,13,13.70
2008,08,06,05,14,13.70
2008,08,06,05,15,13.70
2008,08,06,05,16,13.70
2008,08,06,05,17,13.70
2008,08,06,05,18,13.70
2008,08,06,05,19,13.70
2008,08,06,05,20,13.70
2008,08,06,05,21,13.70
2008,08,06,05,22,13.70
2008,08,06,05,23,13.70
2008,08,06,05,24,13.70
2008,08,06,05,25,13.70
2008,08,06,05,26,13.70
2008,08,06,05,27,13.80
2008,08,06,05,28,13.80
2008,08,06,05,29,13.80
2008,08,06,05,30,13.80
2008,08,06,05,31,13.70
2008,08,06,05,32,13.70
2008,08,06,05,33,13.70
2008,08,06,05,34,13.80
2008,08,06,05,35,13.80
2008,08,06,05,36,13.90
2008,08,06,05,37,13.90
2008,08,06,05,38,13.90
2008,08,06,05,39,13.90
2008,08,06,05,40,13.90
2008,08,06,05,41,13.80
2008,08,06,05,42,13.80
2008,08,06,05,43,13.80
2008,08,06,05,44,13.90
2008,08,06,05,45,13.90
2008,08,06,05,46,14.00
2008,08,06,05,47,14.00
2008,08,06,05,48,14.00
2008,08,06,05,49,13.90
2008,08,06,05,50,13.90
2008,08,06,05,51,13.90
2008,08,06,05,52,13.90
2008,08,06,05,53,13.90
2008,08,06,05,54,13.90
2008,08,06,05,55,13.90
2008,08,06,05,56,13.90
2008,08,06,05,57,13.90
2008,08,06,05,58,13.90
2008,08,06,05,59,13.90
2008,08,06,06,00,13.80
2008,08,06,06,01,13.80
2008,08,06,06,02,13.90
2008,08,06,06,03,13.90
2008,08,06,06,04,13.90
2008,08,06,06,05,13.90
2008,08,06,06,06,13.90
2008,08,06,06,07,13.90
2008,08,06,06,08,13.90
2008,08,06,06,09,13.90
2008,08,06,06,10,13.90
2008,08,06,06,11,13.90
2008,08,06,06,12,13.90
2008,08,06,06,13,13.90
2008,08,06,06,14,14.00
2008,08,06,06,15,14.00
2008,08,06,06,16,14.10
2008,08,06,06,17,14.10
2008,08,06,06,18,14.10
2008,08,06,06,19,14.10
2008,08,06,06,20,14.10
2008,08,06,06,21,14.10
2008,08,06,06,22,14.10
2008,08,06,06,23,14.10
2008,08,06,06,24,14.10
2008,08,06,06,25,14.10
2008,08,06,06,26,14.10
2008,08,06,06,27,14.10
2008,08,06,06,28,14.20
2008,08,06,06,29,14.20
2008,08,06,06,30,14.20
2008,08,06,06,31,14.20
2008,08,06,06,32,14.20
2008,08,06,06,33,14.20
2008,08,06,06,34,14.20
2008,08,06,06,35,14.20
2008,08,06,06,36,14.20
2008,08,06,06,37,14.20
2008,08,06,06,38,14.20
2008,08,06,06,39,14.20
2008,08,06,06,40,14.20
2008,08,06,06,41,14.20
2008,08,06,06,42,14.20
2008,08,06,06,43,14.20
2008,08,06,06,44,14.20
2008,08,06,06,45,14.20
2008,08,06,06,46,14.20
2008,08,06,06,47,14.30
2008,08,06,06,48,14.20
2008,08,06,06,49,14.20
2008,08,06,06,50,14.30
2008,08,06,06,51,14.30
2008,08,06,06,52,14.30
2008,08,06,06,53,14.30
2008,08,06,06,54,14.30
2008,08,06,06,55,14.30
2008,08,06,06,56,14.30
2008,08,06,06,57,14.40
2008,08,06,06,58,14.40
2008,08,06,06,59,14.40
2008,08,06,07,00,14.40
2008,08,06,07,01,14.50
2008,08,06,07,02,14.50
2008,08,06,07,03,14.60
2008,08,06,07,04,14.60
2008,08,06,07,05,14.50
2008,08,06,07,06,14.50
2008,08,06,07,07,14.50
2008,08,06,07,08,14.60
2008,08,06,07,09,14.60
2008,08,06,07,10,14.70
2008,08,06,07,11,14.70
2008,08,06,07,12,14.70
2008,08,06,07,13,14.70
2008,08,06,07,14,14.80
2008,08,06,07,15,14.80
2008,08,06,07,16,14.90
2008,08,06,07,17,15.00
2008,08,06,07,18,15.00
2008,08,06,07,19,15.00
2008,08,06,07,20,15.00
2008,08,06,07,21,15.00
2008,08,06,07,22,15.00
2008,08,06,07,23,15.00
2008,08,06,07,24,15.00
2008,08,06,07,25,15.00
2008,08,06,07,26,15.00
2008,08,06,07,27,15.00
2008,08,06,07,28,15.10
2008,08,06,07,29,15.20
2008,08,06,07,30,15.20
2008,08,06,07,31,15.30
2008,08,06,07,32,15.30
2008,08,06,07,33,15.40
2008,08,06,07,34,15.50
2008,08,06,07,35,15.50
2008,08,06,07,36,15.60
2008,08,06,07,37,15.70
2008,08,06,07,38,15.80
2008,08,06,07,39,15.80
2008,08,06,07,40,15.80
2008,08,06,07,41,15.90
2008,08,06,07,42,15.90
2008,08,06,07,43,16.00
2008,08,06,07,44,16.10
2008,08,06,07,45,16.20
2008,08,06,07,46,16.30
2008,08,06,07,47,16.40
2008,08,06,07,48,16.50
2008,08,06,07,49,16.50
2008,08,06,07,50,16.70
2008,08,06,07,51,16.70
2008,08,06,07,52,16.80
2008,08,06,07,53,16.90
2008,08,06,07,54,17.00
2008,08,06,07,55,17.10
2008,08,06,07,56,17.20
2008,08,06,07,57,17.30
2008,08,06,07,58,17.50
2008,08,06,07,59,17.50
2008,08,06,08,00,17.60
2008,08,06,08,01,17.70
2008,08,06,08,02,17.80
2008,08,06,08,03,17.80
2008,08,06,08,04,18.00
2008,08,06,08,05,18.10
2008,08,06,08,06,18.30
2008,08,06,08,07,18.50
2008,08,06,08,08,18.60
2008,08,06,08,09,18.70
2008,08,06,08,10,18.80
2008,08,06,08,11,18.90
2008,08,06,08,12,18.90
2008,08,06,08,13,19.00
2008,08,06,08,14,19.00
2008,08,06,08,15,19.10
2008,08,06,08,16,19.10
2008,08,06,08,17,19.20
2008,08,06,08,18,19.20
2008,08,06,08,19,19.20
2008,08,06,08,20,19.30
2008,08,06,08,21,19.30
2008,08,06,08,22,19.40
2008,08,06,08,23,19.40
2008,08,06,08,24,19.50
2008,08,06,08,25,19.50
2008,08,06,08,26,19.60
2008,08,06,08,27,19.60
2008,08,06,08,28,19.60
2008,08,06,08,29,19.70
2008,08,06,08,30,19.70
2008,08,06,08,31,19.70
2008,08,06,08,32,19.70
2008,08,06,08,33,19.80
2008,08,06,08,34,19.80
2008,08,06,08,35,19.80
2008,08,06,08,36,19.80
2008,08,06,08,37,19.80
2008,08,06,08,38,19.80
2008,08,06,08,39,19.90
2008,08,06,08,40,19.90
2008,08,06,08,41,20.00
2008,08,06,08,42,20.00
2008,08,06,08,43,20.00
2008,08,06,08,44,20.10
2008,08,06,08,45,20.10
2008,08,06,08,46,20.10
2008,08,06,08,47,20.20
2008,08,06,08,48,20.20
2008,08,06,08,49,20.30
2008,08,06,08,50,20.30
2008,08,06,08,51,20.30
2008,08,06,08,52,20.40
2008,08,06,08,53,20.40
2008,08,06,08,54,20.40
2008,08,06,08,55,20.40
2008,08,06,08,56,20.50
2008,08,06,08,57,20.50
2008,08,06,08,58,20.60
2008,08,06,08,59,20.60
2008,08,06,09,00,20.70
2008,08,06,09,01,20.70
2008,08,06,09,02,20.70
2008,08,06,09,03,20.80
2008,08,06,09,04,20.80
2008,08,06,09,05,20.90
2008,08,06,09,06,20.90
2008,08,06,09,07,21.00
2008,08,06,09,08,21.00
2008,08,06,09,09,21.10
2008,08,06,09,10,21.10
2008,08,06,09,11,21.20
2008,08,06,09,12,21.20
2008,08,06,09,13,21.30
2008,08,06,09,14,21.30
2008,08,06,09,15,21.30
2008,08,06,09,16,21.30
2008,08,06,09,17,21.30
2008,08,06,09,18,21.40
2008,08,06,09,19,21.40
2008,08,06,09,20,21.50
2008,08,06,09,21,21.50
2008,08,06,09,22,21.60
2008,08,06,09,23,21.60
2008,08,06,09,24,21.60
2008,08,06,09,25,21.60
2008,08,06,09,26,21.60
2008,08,06,09,27,21.70
2008,08,06,09,28,21.70
2008,08,06,09,29,21.80
2008,08,06,09,30,21.80
2008,08,06,09,31,21.80
2008,08,06,09,32,21.80
2008,08,06,09,33,21.80
2008,08,06,09,34,21.80
2008,08,06,09,35,21.90
2008,08,06,09,36,21.90
2008,08,06,09,37,21.90
2008,08,06,09,38,21.90
2008,08,06,09,39,21.90
2008,08,06,09,40,21.90
2008,08,06,09,41,21.90
2008,08,06,09,42,21.90
2008,08,06,09,43,21.90
2008,08,06,09,44,21.90
2008,08,06,09,45,21.90
2008,08,06,09,46,21.90
2008,08,06,09,47,21.90
2008,08,06,09,48,21.90
2008,08,06,09,49,21.90
2008,08,06,09,50,22.00
2008,08,06,09,51,22.00
2008,08,06,09,52,22.00
2008,08,06,09,53,22.00
2008,08,06,09,54,22.10
2008,08,06,09,55,22.10
2008,08,06,09,56,22.10
2008,08,06,09,57,22.20
2008,08,06,09,58,22.20
2008,08,06,09,59,22.20
2008,08,06,10,00,22.20
2008,08,06,10,01,22.30
2008,08,06,10,02,22.30
2008,08,06,10,03,22.30
2008,08,06,10,04,22.40
2008,08,06,10,05,22.40
2008,08,06,10,06,22.50
2008,08,06,10,07,22.60
2008,08,06,10,08,22.60
2008,08,06,10,09,22.60
2008,08,06,10,10,22.70
2008,08,06,10,11,22.70
2008,08,06,10,12,22.80
2008,08,06,10,13,22.80
2008,08,06,10,14,22.80
2008,08,06,10,15,22.80
2008,08,06,10,16,22.80
2008,08,06,10,17,22.80
2008,08,06,10,18,22.80
2008,08,06,10,19,22.80
2008,08,06,10,20,22.80
2008,08,06,10,21,22.80
2008,08,06,10,22,22.80
2008,08,06,10,23,22.90
2008,08,06,10,24,22.90
2008,08,06,10,25,23.00
2008,08,06,10,26,23.00
2008,08,06,10,27,23.00
2008,08,06,10,28,23.00
2008,08,06,10,29,23.00
2008,08,06,10,30,23.00
2008,08,06,10,31,23.10
2008,08,06,10,32,23.10
2008,08,06,10,33,23.10
2008,08,06,10,34,23.20
2008,08,06,10,35,23.20
2008,08,06,10,36,23.30
2008,08,06,10,37,23.40
2008,08,06,10,38,23.40
2008,08,06,10,39,23.40
2008,08,06,10,40,23.50
2008,08,06,10,41,23.50
2008,08,06,10,42,23.50
2008,08,06,10,43,23.50
2008,08,06,10,44,23.50
2008,08,06,10,45,23.50
2008,08,06,10,46,23.60
2008,08,06,10,47,23.60
2008,08,06,10,48,23.70
2008,08,06,10,49,23.80
2008,08,06,10,50,23.80
2008,08,06,10,51,23.80
2008,08,06,10,52,23.80
2008,08,06,10,53,23.80
2008,08,06,10,54,23.80
2008,08,06,10,55,23.80
2008,08,06,10,56,23.80
2008,08,06,10,57,23.80
2008,08,06,10,58,23.90
2008,08,06,10,59,23.90
2008,08,06,11,00,24.00
2008,08,06,11,01,24.00
2008,08,06,11,02,24.00
2008,08,06,11,03,24.10
2008,08,06,11,04,24.20
2008,08,06,11,05,24.20
2008,08,06,11,06,24.40
2008,08,06,11,07,24.40
2008,08,06,11,08,24.50
2008,08,06,11,09,24.60
2008,08,06,11,10,24.60
2008,08,06,11,11,24.70
2008,08,06,11,12,24.70
2008,08,06,11,13,24.70
2008,08,06,11,14,24.70
2008,08,06,11,15,24.80
2008,08,06,11,16,24.80
2008,08,06,11,17,24.70
2008,08,06,11,18,24.70
2008,08,06,11,19,24.70
2008,08,06,11,20,24.70
2008,08,06,11,21,24.80
2008,08,06,11,22,24.80
2008,08,06,11,23,24.90
2008,08,06,11,24,24.90
2008,08,06,11,25,24.90
2008,08,06,11,26,24.90
2008,08,06,11,27,25.00
2008,08,06,11,28,25.00
2008,08,06,11,29,25.10
2008,08,06,11,30,25.00
2008,08,06,11,31,25.00
2008,08,06,11,32,24.90
2008,08,06,11,33,24.90
2008,08,06,11,34,24.80
2008,08,06,11,35,24.80
2008,08,06,11,36,24.80
2008,08,06,11,37,24.80
2008,08,06,11,38,24.80
2008,08,06,11,39,24.80
2008,08,06,11,40,24.80
2008,08,06,11,41,24.90
2008,08,06,11,42,24.90
2008,08,06,11,43,25.00
2008,08,06,11,44,25.00
2008,08,06,11,45,25.10
2008,08,06,11,46,25.10
2008,08,06,11,47,25.10
2008,08,06,11,48,25.10
2008,08,06,11,49,25.10
2008,08,06,11,50,25.10
2008,08,06,11,51,25.20
2008,08,06,11,52,25.30
2008,08,06,11,53,25.20
2008,08,06,11,54,25.10
2008,08,06,11,55,25.10
2008,08,06,11,56,25.10
2008,08,06,11,57,25.10
2008,08,06,11,58,25.10
2008,08,06,11,59,25.20
2008,08,06,12,00,25.20
2008,08,06,12,01,25.20
2008,08,06,12,02,25.30
2008,08,06,12,03,25.30
2008,08,06,12,04,25.40
2008,08,06,12,05,25.50
2008,08,06,12,06,25.50
2008,08,06,12,07,25.50
2008,08,06,12,08,25.50
2008,08,06,12,09,25.60
2008,08,06,12,10,25.60
2008,08,06,12,11,25.60
2008,08,06,12,12,25.70
2008,08,06,12,13,25.70
2008,08,06,12,14,25.60
2008,08,06,12,15,25.50
2008,08,06,12,16,25.40
2008,08,06,12,17,25.30
2008,08,06,12,18,25.20
2008,08,06,12,19,25.20
2008,08,06,12,20,25.10
2008,08,06,12,21,25.10
2008,08,06,12,22,25.10
2008,08,06,12,23,25.00
2008,08,06,12,24,24.90
2008,08,06,12,25,24.80
2008,08,06,12,26,24.80
2008,08,06,12,27,24.80
2008,08,06,12,28,24.70
2008,08,06,12,29,24.60
2008,08,06,12,30,24.60
2008,08,06,12,31,24.50
2008,08,06,12,32,24.40
2008,08,06,12,33,24.40
2008,08,06,12,34,24.30
2008,08,06,12,35,24.30
2008,08,06,12,36,24.30
2008,08,06,12,37,24.30
2008,08,06,12,38,24.30
2008,08,06,12,39,24.40
2008,08,06,12,40,24.40
2008,08,06,12,41,24.50
2008,08,06,12,42,24.50
2008,08,06,12,43,24.60
2008,08,06,12,44,24.70
2008,08,06,12,45,24.80
2008,08,06,12,46,24.90
2008,08,06,12,47,25.10
2008,08,06,12,48,25.20
2008,08,06,12,49,25.30
2008,08,06,12,50,25.30
2008,08,06,12,51,25.30
2008,08,06,12,52,25.20
2008,08,06,12,53,25.10
2008,08,06,12,54,25.10
2008,08,06,12,55,25.00
2008,08,06,12,56,25.00
2008,08,06,12,57,24.90
2008,08,06,12,58,24.90
2008,08,06,12,59,24.90
2008,08,06,13,00,24.90
2008,08,06,13,01,24.90
2008,08,06,13,02,24.90
2008,08,06,13,03,24.90
2008,08,06,13,04,24.80
2008,08,06,13,05,24.80
2008,08,06,13,06,24.90
2008,08,06,13,07,24.90
2008,08,06,13,08,24.90
2008,08,06,13,09,25.00
2008,08,06,13,10,25.20
2008,08,06,13,11,25.30
2008,08,06,13,12,25.40
2008,08,06,13,13,25.50
2008,08,06,13,14,25.60
2008,08,06,13,15,25.60
2008,08,06,13,16,25.70
2008,08,06,13,17,25.80
2008,08,06,13,18,25.70
2008,08,06,13,19,25.80
2008,08,06,13,20,25.80
2008,08,06,13,21,25.80
2008,08,06,13,22,25.80
2008,08,06,13,23,25.80
2008,08,06,13,24,25.90
2008,08,06,13,25,25.90
2008,08,06,13,26,26.00
2008,08,06,13,27,26.10
2008,08,06,13,28,26.10
2008,08,06,13,29,26.20
2008,08,06,13,30,26.30
2008,08,06,13,31,26.30
2008,08,06,13,32,26.30
2008,08,06,13,33,26.40
2008,08,06,13,34,26.50
2008,08,06,13,35,26.60
2008,08,06,13,36,26.60
2008,08,06,13,37,26.70
2008,08,06,13,38,26.80
2008,08,06,13,39,26.80
2008,08,06,13,40,26.80
2008,08,06,13,41,26.80
2008,08,06,13,42,26.80
2008,08,06,13,43,26.90
2008,08,06,13,44,27.00
2008,08,06,13,45,27.10
2008,08,06,13,46,27.20
2008,08,06,13,47,27.10
2008,08,06,13,48,27.00
2008,08,06,13,49,26.90
2008,08,06,13,50,26.80
2008,08,06,13,51,26.70
2008,08,06,13,52,26.60
2008,08,06,13,53,26.60
2008,08,06,13,54,26.50
2008,08,06,13,55,26.50
2008,08,06,13,56,26.50
2008,08,06,13,57,26.50
2008,08,06,13,58,26.60
2008,08,06,13,59,26.60
2008,08,06,14,00,26.70
2008,08,06,14,01,26.70
2008,08,06,14,02,26.70
2008,08,06,14,03,26.70
2008,08,06,14,04,26.70
2008,08,06,14,05,26.70
2008,08,06,14,06,26.70
2008,08,06,14,07,26.70
2008,08,06,14,08,26.70
2008,08,06,14,09,26.80
2008,08,06,14,10,26.80
2008,08,06,14,11,26.80
2008,08,06,14,12,26.90
2008,08,06,14,13,27.00
2008,08,06,14,14,27.10
2008,08,06,14,15,27.10
2008,08,06,14,16,27.20
2008,08,06,14,17,27.20
2008,08,06,14,18,27.20
2008,08,06,14,19,27.20
2008,08,06,14,20,27.30
2008,08,06,14,21,27.30
2008,08,06,14,22,27.40
2008,08,06,14,23,27.40
2008,08,06,14,24,27.40
2008,08,06,14,25,27.40
2008,08,06,14,26,27.40
2008,08,06,14,27,27.40
2008,08,06,14,28,27.40
2008,08,06,14,29,27.50
2008,08,06,14,30,27.60
2008,08,06,14,31,27.60
2008,08,06,14,32,27.60
2008,08,06,14,33,27.60
2008,08,06,14,34,27.50
2008,08,06,14,35,27.60
2008,08,06,14,36,27.60
2008,08,06,14,37,27.60
2008,08,06,14,38,27.60
2008,08,06,14,39,27.50
2008,08,06,14,40,27.50
2008,08,06,14,41,27.40
2008,08,06,14,42,27.30
2008,08,06,14,43,27.20
2008,08,06,14,44,27.10
2008,08,06,14,45,27.00
2008,08,06,14,46,26.90
2008,08,06,14,47,26.80
2008,08,06,14,48,26.80
2008,08,06,14,49,26.70
2008,08,06,14,50,26.60
2008,08,06,14,51,26.50
2008,08,06,14,52,26.40
2008,08,06,14,53,26.30
2008,08,06,14,54,26.20
2008,08,06,14,55,26.00
2008,08,06,14,56,25.90
2008,08,06,14,57,25.80
2008,08,06,14,58,25.70
2008,08,06,14,59,25.50
2008,08,06,15,00,25.50
2008,08,06,15,01,25.40
2008,08,06,15,02,25.40
2008,08,06,15,03,25.40
2008,08,06,15,04,25.30
2008,08,06,15,05,25.20
2008,08,06,15,06,25.10
2008,08,06,15,07,25.10
2008,08,06,15,08,25.00
2008,08,06,15,09,25.00
2008,08,06,15,10,25.00
2008,08,06,15,11,25.00
2008,08,06,15,12,25.00
2008,08,06,15,13,24.90
2008,08,06,15,14,24.90
2008,08,06,15,15,24.90
2008,08,06,15,16,24.90
2008,08,06,15,17,24.90
2008,08,06,15,18,24.90
2008,08,06,15,19,24.90
2008,08,06,15,20,24.90
2008,08,06,15,21,25.00
2008,08,06,15,22,25.10
2008,08,06,15,23,25.10
2008,08,06,15,24,25.20
2008,08,06,15,25,25.30
2008,08,06,15,26,25.30
2008,08,06,15,27,25.40
2008,08,06,15,28,25.50
2008,08,06,15,29,25.60
2008,08,06,15,30,25.70
2008,08,06,15,31,25.70
2008,08,06,15,32,25.70
2008,08,06,15,33,25.80
2008,08,06,15,34,25.80
2008,08,06,15,35,25.70
2008,08,06,15,36,25.70
2008,08,06,15,37,25.70
2008,08,06,15,38,25.80
2008,08,06,15,39,25.80
2008,08,06,15,40,25.90
2008,08,06,15,41,25.90
2008,08,06,15,42,26.00
2008,08,06,15,43,26.10
2008,08,06,15,44,26.20
2008,08,06,15,45,26.30
2008,08,06,15,46,26.40
2008,08,06,15,47,26.40
2008,08,06,15,48,26.50
2008,08,06,15,49,26.60
2008,08,06,15,50,26.70
2008,08,06,15,51,26.70
2008,08,06,15,52,26.80
2008,08,06,15,53,26.90
2008,08,06,15,54,26.90
2008,08,06,15,55,26.90
2008,08,06,15,56,26.90
2008,08,06,15,57,26.90
2008,08,06,15,58,26.90
2008,08,06,15,59,26.90
2008,08,06,16,00,26.80
2008,08,06,16,01,26.90
2008,08,06,16,02,27.00
2008,08,06,16,03,27.10
2008,08,06,16,04,27.20
2008,08,06,16,05,27.10
2008,08,06,16,06,27.10
2008,08,06,16,07,27.10
2008,08,06,16,08,27.00
2008,08,06,16,09,27.00
2008,08,06,16,10,26.90
2008,08,06,16,11,26.90
2008,08,06,16,12,26.80
2008,08,06,16,13,26.80
2008,08,06,16,14,26.80
2008,08,06,16,15,26.90
2008,08,06,16,16,26.90
2008,08,06,16,17,27.00
2008,08,06,16,18,27.00
2008,08,06,16,19,27.10
2008,08,06,16,20,27.20
2008,08,06,16,21,27.30
2008,08,06,16,22,27.40
2008,08,06,16,23,27.50
2008,08,06,16,24,27.70
2008,08,06,16,25,27.80
2008,08,06,16,26,27.80
2008,08,06,16,27,27.90
2008,08,06,16,28,27.90
2008,08,06,16,29,27.90
2008,08,06,16,30,27.80
2008,08,06,16,31,27.70
2008,08,06,16,32,27.70
2008,08,06,16,33,27.70
2008,08,06,16,34,27.70
2008,08,06,16,35,27.70
2008,08,06,16,36,27.70
2008,08,06,16,37,27.80
2008,08,06,16,38,27.90
2008,08,06,16,39,28.00
2008,08,06,16,40,28.10
2008,08,06,16,41,28.20
2008,08,06,16,42,28.40
2008,08,06,16,43,28.50
2008,08,06,16,44,28.60
2008,08,06,16,45,28.80
2008,08,06,16,46,28.90
2008,08,06,16,47,29.10
2008,08,06,16,48,29.10
2008,08,06,16,49,29.00
2008,08,06,16,50,28.90
2008,08,06,16,51,28.80
2008,08,06,16,52,28.70
2008,08,06,16,53,28.70
2008,08,06,16,54,28.60
2008,08,06,16,55,28.60
2008,08,06,16,56,28.60
2008,08,06,16,57,28.60
2008,08,06,16,58,28.70
2008,08,06,16,59,28.80
2008,08,06,17,00,28.90
2008,08,06,17,01,29.10
2008,08,06,17,02,29.10
2008,08,06,17,03,29.00
2008,08,06,17,04,28.90
2008,08,06,17,05,28.80
2008,08,06,17,06,28.70
2008,08,06,17,07,28.70
2008,08,06,17,08,28.60
2008,08,06,17,09,28.50
2008,08,06,17,10,28.40
2008,08,06,17,11,28.30
2008,08,06,17,12,28.30
2008,08,06,17,13,28.30
2008,08,06,17,14,28.30
2008,08,06,17,15,28.30
2008,08,06,17,16,28.30
2008,08,06,17,17,28.40
2008,08,06,17,18,28.40
2008,08,06,17,19,28.40